Ellensburg, WA

2:05 AM PDT on March 24, 2017 (GMT -0700)
Bowers

Weather History for KELN - October, 2011

Change the Weather History Date:

Saturday, October 8, 2011

  Actual Average (KYKM) Record (KYKM)
Temperature  
Mean Temperature 50 °F -  
Max Temperature 66 °F 68 °F 84 °F (1988)
Min Temperature 34 °F 37 °F 23 °F (1985)
Degree Days  
Heating Degree Days 15    
Moisture  
Dew Point 37 °F    
Average Humidity 67    
Maximum Humidity 86    
Minimum Humidity 37    
Precipitation  
Precipitation 0.00 in - - ()
Sea Level Pressure  
Sea Level Pressure 30.19 in    
Wind  
Wind Speed 3 mph (ENE)    
Max Wind Speed 8 mph    
Max Gust Speed -    
Visibility 10 miles    
Events      
Averages and records for this station are not official NWS values.
T = Trace of Precipitation, MM = Missing Value Source: NWS Daily Summary

Daily Weather History Graph

Daily Weather History Graph

Search for Another Location

Airport or City:

Trip Planner

Search our weather history database for the weather conditions in past years. The results will help you decide how hot, cold, wet, or windy it might be!

Date:

Astronomy

Oct. 08, 2011 Rise Set
Actual Time 7:10 AM PDT 6:28 PM PDT
Civil Twilight 6:39 AM PDT 6:58 PM PDT
Nautical Twilight 6:04 AM PDT 7:33 PM PDT
Astronomical Twilight 5:28 AM PDT 8:09 PM PDT
Moon 4:48 PM PDT (10/8) 3:52 AM PDT (10/8)
Length of Visible Light 12h 18m
Length of Day
11h 18m
Waxing Gibbous, 90% of the Moon is Illuminated
Oct 8
Waxing Gibbous
Oct 11
Full
Oct 19
Last Quarter
Oct 26
New
Nov 2
First Quarter

Hourly Weather History & Observations

Time (PDT) Temp. Windchill Dew Point Humidity Pressure Visibility Wind Dir Wind Speed Gust Speed Precip Events Conditions
12:53 AM 43.0 °F 38.8 °F 36.0 °F 76% 30.19 in 10.0 mi NNE 6.9 mph - N/A   Clear
1:53 AM 44.1 °F 42.5 °F 37.0 °F 76% 30.21 in 10.0 mi NNE 3.5 mph - N/A   Clear
2:53 AM 41.0 °F - 35.1 °F 79% 30.22 in 10.0 mi Calm Calm - N/A   Clear
3:53 AM 37.0 °F - 32.0 °F 82% 30.23 in 10.0 mi Calm Calm - N/A   Clear
4:53 AM 34.0 °F - 30.0 °F 85% 30.24 in 10.0 mi Calm Calm - N/A   Clear
5:53 AM 34.0 °F 29.8 °F 30.0 °F 85% 30.25 in 10.0 mi North 4.6 mph - N/A   Clear
6:53 AM 35.1 °F - 30.9 °F 85% 30.25 in 10.0 mi Calm Calm - N/A   Clear
7:53 AM 37.9 °F - 34.0 °F 86% 30.25 in 10.0 mi Calm Calm - N/A   Clear
9:53 AM 48.9 °F - 39.9 °F 71% 30.25 in 10.0 mi East 4.6 mph - N/A   Clear
11:53 AM 57.0 °F - 39.9 °F 53% 30.22 in 10.0 mi Calm Calm - N/A   Clear
12:53 PM 62.1 °F - 39.9 °F 44% 30.19 in 10.0 mi SSE 6.9 mph - N/A   Clear
1:53 PM 64.9 °F - 37.9 °F 37% 30.16 in 10.0 mi SE 6.9 mph - N/A   Clear
2:53 PM 64.9 °F - 37.9 °F 37% 30.16 in 10.0 mi Calm Calm - N/A   Clear
3:53 PM 66.0 °F - 39.0 °F 37% 30.14 in 10.0 mi Calm Calm - N/A   Clear
6:53 PM 52.0 °F - 41.0 °F 66% 30.13 in 10.0 mi NE 5.8 mph - N/A   Clear
7:53 PM 52.0 °F - 39.9 °F 63% 30.13 in 10.0 mi ENE 8.1 mph - N/A   Clear
8:53 PM 50.0 °F - 39.9 °F 68% 30.11 in 10.0 mi ENE 8.1 mph - N/A   Clear
9:53 PM 50.0 °F - 39.9 °F 68% 30.10 in 10.0 mi Calm Calm - N/A   Clear
10:53 PM 48.0 °F - 39.0 °F 71% 30.11 in 10.0 mi Calm Calm - N/A   Clear